www.pogodaiklimat.ru

Погода и климат >> Архив погоды >> Россия >> Саратовская область >> Маркс


ПОГОДА в Маркс

  • Прогноз погоды в Маркс
  • Монитор погоды в Маркс

АРХИВ ПОГОДЫ в Маркс

Время (UTC), дата Ветер
(напр.,м/с)
 
Видим.   Явления Облачность Т
(С)
Тd
(С)
f
(%)
Тe
(С)
Тes
(С)
Комфортность P
(гПа)
Po
(гПа)
Тmin
(С)
Tmax
(С)
R
(мм)
R24
(мм)
S
(см)
18 19.05 СВ 3
{10}
50 км ясно +13.2 0.0 40 +12 +12 1015.5 1011.6
21 19.05 СВ 2 50 км ясно +10.1 -0.4 48 +9 +9 1017.0 1013.1
00 20.05 СВ 1 50 км ясно +6.9 +0.1 62 +6 +6 1018.6 1014.7
03 20.05 С 1 50 км ясно +6.8 +0.1 62 +6 +9 1020.2 1016.3 +5.3
06 20.05 СВ 4 50 км 4/4 1000 м
[Cu hum]
+11.1 -2.0 40 +9 +14 1021.0 1017.2
09 20.05 С 3 50 км 6/6 1000 м
[Sc]
+13.4 -1.1 37 +13 +18 1020.4 1016.5
12 20.05 СЗ 3
{10}
50 км 9/9 1000 м
[Cu med, cong]
+15.0 -1.0 33 +15 +15 1019.5 1015.7
15 20.05 С 4 50 км 9/9 1000 м
[Sc]
+15.2 -1.1 33 +14 +15 1019.4 1015.6 +16.5
18 20.05 С 2 50 км 3/3 1000 м
[Sc diur, vesp]
+11.1 +1.1 50 +10 +10 1020.6 1016.7
21 20.05 СЗ 1 50 км 9/9 1000 м
[Sc]
+9.7 +2.5 61 +10 +10 1021.1 1017.2
00 21.05 З 1 50 км 9/0
[Ac trans]
+9.2 +1.6 59 +9 +9 1021.7 1017.8
03 21.05 С 1 50 км 3/0
[Ac trans]
+11.7 +2.6 54 +12 +14 1022.6 1018.8 +6.5
06 21.05 С 1 50 км 3/0
[Ac trans]
+14.9 +1.1 39 +16 +26 1023.1 1019.3
09 21.05 СЗ 2 50 км 8/8 600 м
[Cu med, cong]
+18.1 +1.4 33 +19 +22 1022.4 1018.7
12 21.05 З 2 50 км 8/4 600 м
[Cu hum Ci fib]
+20.0 +1.6 29 +21 +26 комфорт 1020.9 1017.1
15 21.05 ЮЗ 1 50 км 4/0
[Ci fib]
+21.1 +2.0 28 +21 +23 комфорт 1019.1 1015.3 +21.3
18 21.05 штиль 0 50 км 3/0
[Ci fib]
+14.1 +6.0 58 +14 +14 1019.0 1015.2
21 21.05 штиль 0 20 км ясно +10.0 +6.8 80 +9 +9 1019.2 1015.3
00 22.05 штиль 0 20 км 3/0
[Ac trans]
+9.0 +8.0 93 +8 +8 1019.0 1015.1
03 22.05 З 1 50 км 3/0
[Ci fib]
+12.1 +6.9 70 +12 +14 1018.8 1015.0 +8.4
06 22.05 З 2 50 км 9/0
[Ci fib]
+19.5 +7.2 45 +21 +30 комфорт 1018.1 1014.4
09 22.05 З 3 50 км 9/1 1000 м
[Cu hum Ci fib]
+24.2 +4.6 28 +24 +34 комфорт 1016.6 1012.9
12 22.05 СЗ 3 50 км 9/1 1000 м
[Cu hum Ac lent Ci fib]
+25.0 +3.4 25 +24 +28 комфорт 1014.6 1010.9
15 22.05 З 1 50 км 9/0
[Ci]
+23.8 +5.0 30 +24 +25 комфорт 1013.4 1009.7 +25.8
18 22.05 ЮЗ 4
{11}
50 км 4/0
[Ci fib]
+19.6 +4.6 37 +20 +20 1013.7 1010.0
21 22.05 ЮЗ 1 20 км 9/0
[Ac und]
+15.7 +6.1 53 +17 +17 1013.6 1009.8
00 23.05 Ю 2 20 км 9/0
[Ac trans Ci fib]
+13.1 +5.9 62 +13 +13 1012.6 1008.8
03 23.05 ЮЗ 2 50 км 9/0
[Ci fib]
+13.5 +6.1 61 +13 +15 1011.6 1007.9 +12.0
06 23.05 Ю 2 50 км 9/0
[Ci sp]
+21.0 +8.7 45 +23 +32 комфорт 1010.2 1006.6
09 23.05 ЮЗ 5-10
{10}
50 км 9/6 1000 м
[Cu med, cong Ci fib]
+23.1 +9.6 42 +25 +28 комфорт 1008.4 1004.8
12 23.05 ЮЗ 6-11
{11}
50 км 9/8 600 м
[Cu med, cong Ac cast Ci fib]
+22.9 +10.5 45 +25 +25 комфорт 1006.8 1003.2
15 23.05 ЮЗ 5-10
{11}
50 км 9/3 1000 м
[Sc diur, vesp Ac trans Ci fib]
+22.5 +10.4 46 +24 +25 комфорт 1005.4 1001.7 +24.3
18 23.05 ЮЗ 2
{10}
50 км 8/3 1000 м
[Sc Ac trans]
+18.2 +10.1 59 +19 +19 1005.9 1002.2
21 23.05 ЮЗ 2 50 км ясно +14.1 +10.4 78 +14 +14 1004.9 1001.2
00 24.05 З 1 50 км 9/9 1000 м
[Sc]
+13.9 +11.7 87 +14 +14 1004.3 1000.6
03 24.05 ЮЗ 1 20 км 4/0
[Ac trans Ci fib]
+14.7 +12.4 86 +15 +17 1004.7 1000.9 +12.1
06 24.05 С 1 50 км 4/0
[Ac trans Ci fib]
+19.6 +14.0 70 +22 +33 комфорт 1005.3 1001.6
09 24.05 СВ 4 50 км 9/8 600 м
[Cb cap Ac trans]
+19.9 +13.3 66 +22 +23 комфорт 1007.2 1003.5
12 24.05 В 5
{10}
50 км 4/4 1000 м
[Cu hum]
+18.8 +11.6 63 +19 +23 1009.1 1005.4
15 24.05 СВ 4 50 км 4/0
[Ac trans]
+17.7 +7.5 51 +17 +18 1011.5 1007.8 +21.6
18 24.05 В 4 50 км ясно +14.5 +3.3 47 +13 +13 1013.4 1010.6
21 24.05 В 4 50 км ясно +9.4 +2.3 61 +7 +7 1016.7 1012.8
00 25.05 В 2 50 км ясно +6.8 +1.3 68 +5 +5 1018.5 1014.6
03 25.05 В 2 50 км ясно +8.3 +1.4 62 +7 +9 1019.9 1016.0 +6.0
06 25.05 ЮВ 3 50 км 3/0
[Ci fib]
+13.5 -0.7 38 +13 +21 1020.0 1016.2
09 25.05 В 4
{10}
50 км 3/0
[Ci fib]
+17.0 -1.4 28 +17 +27 1018.7 1014.9
12 25.05 ЮВ 2 50 км 3/0
[Ci fib]
+19.8 -1.8 23 +20 +30 1017.1 1013.3
15 25.05 ЮВ 2 50 км 6/0
[Ci fib]
+19.5 -1.5 24 +20 +22 1015.4 1011.7 +20.6
18 25.05 ЮВ 1 50 км 3/0
[Ci fib]
+14.2 -0.7 36 +15 +15 1015.9 1012.1
21 25.05 В 2 50 км ясно +11.7 +0.1 45 +11 +11 1014.9 1011.1
00 26.05 В 2 20 км 8/0
[Ac trans]
+10.7 +0.2 48 +10 +10 1013.9 1010.0
03 26.05 В 3 50 км 9/3 1000 м
[Sc Ac trans]
+13.8 +0.8 41 +13 +14 1012.9 1009.1 +10.4
06 26.05 ЮВ 2 50 км {ливн. осадки} 10/4 1000 м
[Sc Ac und]
+16.1 +4.8 47 +16 +18 1011.8 1008.1
09 26.05 В 4 50 км {ливн. осадки} 8/3 600 м
[Cb cap Ac trans Ci fib]
+21.1 +10.8 52 +23 +28 комфорт 1009.7 1006.0
12 26.05 ЮВ 2
{12}
10 км слаб. ливневой дождь, в посл. час гроза 10/10 500 м
[Cb cap]
+19.6 +16.5 82 +22 +22 комфорт 1007.8 1004.1
15 26.05 ЮЗ 3 50 км {ливн. осадки} 8/3 1000 м
[Cb cap Ac trans Ci fib]
+22.8 +14.0 58 +26 +27 жарко 1006.7 1003.0 +25.0 2

 

Местоположение метеостанции Маркс (Саратовская область, Россия): широта 51.70 долгота 46.73 высота над уровнем моря 29 м.

В архиве по умолчанию представлена погода в Маркс за последнюю неделю. Архивные данные за месяц целиком и за предыдущие месяцы, начиная с января 2011 года, Вы можете получить, выбрав интересующий диапазон дат из раскрывающегося списка и нажав кнопку "Ввод!".


*Определитесь, кто Вы:
робот инопланетянин человек

Внимание! Время в таблицах - всемирное. Для получения местного времени необходимо прибавить поправку, которая равна 4 ч.

Смотрите также архив погоды в соседних городах и на ближайших метеорологических станциях:

Погода в Саратове (Саратовская область, Россия) (50 км)
Погода в Саратове ЮВ (Саратовская область, Россия) (52 км)
Погода в Карабулаке (Саратовская область, Россия) (74 км)
Погода в Балаково (Саратовская область, Россия) (83 км)
Погода в Красном Куте (Саратовская область, Россия) (85 км)
Погода в Октябрьском Городке (Саратовская область, Россия) (89 км)
Погода в Петровске (Саратовская область, Россия) (112 км)
Погода в Ершове (Саратовская область, Россия) (115 км)
Погода в Сплавнухе (Саратовская область, Россия) (117 км)
Погода в Аткарске (Саратовская область, Россия) (118 км)

Пояснения к столбцам:

Ветер - указаны скорость ветра в м/с - средняя за 10 мин, порывы в срок и между сроками (в фигурных скобках) и направление, откуда дует ветер: С - северный, СВ - северо-восточный, В - восточный, ЮВ - юго-восточный, Ю - южный, ЮЗ - юго-западный, З - западный, СЗ - северо-западный.
Видимость - горизонтальная дальность видимости в метрах или километрах. При видимости от 1 до 10 км при отсутствии осадков обычно наблюдается дымка, при ухудшении видимости до 1 км и менее - туман. В сухую погоду видимость может ухудшаться дымом, пылью или мглою.
Явления - указаны атмосферные явления, наблюдавшиеся в срок или в последний час перед сроком; фигурными скобками обозначены явления, наблюдавшиеся между сроками (за 1-3 часа до срока); квадратными скобками обозначены град или гололедные отложения с указанием их диаметра в мм.
Облачность - указаны через наклонную черту общая и нижняя облачность в баллах и высота нижней границы облаков в метрах; квадратными скобками обозначены формы облаков: Ci - перистые, Cs - перисто-слоистые, Cc - перисто-кучевые, Ac - высококучевые, As - высокослоистые, Sc - слоисто-кучевые, Ns - слоисто-дождевые, Cu - кучевые, Cb - кучево-дождевые. Подробнее классификацию облаков см. в Атласе облаков (PDF).
T - Температура воздуха - температура, измеренная на высоте 2 м над землей.
Td - Температура точки росы - температура, при понижении до которой содержащийся в воздухе водяной пар достигнет насыщения.
f - Относительная влажность воздуха - влажноcть воздуха, измеренная на высоте 2 м над землей.
Te - Эффективная температура - температура, которую ощущает одетый по сезону человек в тени. Характеристика душности погоды. При расчете учитывается влияние влажности воздуха и скорости ветра на теплоощущения человека.
Tes - Эффективная температура на солнце - температура, которую ощущает человек, с поправкой на солнечный нагрев. Характеристика знойности погоды. Зависит от высоты солнца над горизонтом, облачности и скорости ветра. Ночью, в пасмурную погоду, а также при ветре 12 м/с и более поправка равна нулю.
P - Атмосферное давление - приведенное к уровню моря атмосферное давление.
Po - Атмосферное давление - измеренное на уровне метеостанции атмосферное давление.
Tmin - Минимальная температура - минимум температуры воздуха на высоте 2 м над землей.
Tmax - Максимальная температура - максимум температуры воздуха на высоте 2 м над землей.
R - Количество осадков - Количество выпавших осадков за период времени, мм. При наведении курсора мыши на число - период времени, за который выпало указанное количество осадков.
R24 - Количество осадков - Количество выпавших осадков за 24 часа, мм.
S - Снежный покров - Высота снежного покрова, см. При наведении курсора мыши на число - состояние снежного покрова и степень покрытия местности в баллах.